Location: Newark
(49.8348°N, 24.0280°E)
Time: 03:42:27
(UTC+00:00)

Transit 2A - Pass Details

Date: 21 January 2020
Orbit: 600 x 959 km, 66.7° (Epoch: 16 February)

Event Time Altitude Azimuth Distance (km) Brightness Sun altitude
Rises 18:26:00 0° 179° (S) 2,906 - -32.8°
Reaches altitude 10° 18:28:39 10° 164° (SSE) 1,971 - -33.3°
Maximum altitude 18:32:06 23° 112° (ESE) 1,304 - -33.8°
Drops below altitude 10° 18:35:30 10° 60° (ENE) 1,949 - -34.3°
Sets 18:38:06 0° 46° (NE) 2,865 - -34.8°
